Location: Ladysmith
(45.4630°N, 91.1040°W)
Time: 00:35:41
(UTC-06:00)

Amateur Radio Satellites - All Passes

Search period start: 21 November 2017 00:05
Search period end: 22 November 2017 00:05
Location: Ladysmith, 45.4630°N, 91.1040°W

Satellite Date Start Highest point End Downlink Frequencies (MHz)
Time Altitude Azimuth
PRISM 21 Nov 00:08:09 00:10:32 15° 299° (WNW) 00:12:56 437.425
RS-15 21 Nov 00:17:45 00:28:14 31° 11° (N) 00:38:19 29.354- 29.394
DUCHIFAT 1 21 Nov 00:21:17 00:25:28 82° 103° (ESE) 00:29:38 145.980
ISS 21 Nov 00:23:01 00:25:52 26° 0° (N) 00:28:41 437.550
EO-79 21 Nov 00:28:11 00:32:22 65° 286° (WNW) 00:36:30 145.935-145.965
50 SAT 21 Nov 00:30:23 00:33:31 49° 73° (ENE) 00:36:42 437.505
NANOSAT C BR1 21 Nov 00:31:41 00:35:51 67° 286° (WNW) 00:39:59 145.865
SO-50 21 Nov 00:33:16 00:35:10 12° 334° (NNW) 00:37:05 436.795
AIST 2D 21 Nov 00:42:10 00:43:44 13° 296° (WNW) 00:45:18 435.315
POLYITAN 1 21 Nov 00:43:32 00:47:32 44° 289° (WNW) 00:51:31 437.675
DX 1 21 Nov 00:46:49 00:51:10 75° 74° (ENE) 00:55:34 434.975-435.025
O/OREOS (USA 219) 21 Nov 00:47:44 00:48:57 11° 264° (W) 00:50:10 437.305
Oscar 19 21 Nov 00:50:21 00:54:36 25° 94° (E) 00:58:49 437.125/150
ITUPSAT 1 21 Nov 00:53:39 00:54:37 11° 55° (NE) 00:55:35 437.325
PCSat 21 Nov 00:56:31 01:01:55 72° 304° (NW) 01:07:22 145.827
SPROUT 21 Nov 01:03:16 01:05:16 13° 271° (W) 01:07:17 437.525
MOZHAYETS 4 21 Nov 01:07:11 01:10:00 16° 61° (ENE) 01:12:49
QB50P2 21 Nov 01:07:18 01:10:42 24° 294° (WNW) 01:14:04 145.880/145.840
Gurwin Techsat 1B 21 Nov 01:12:38 01:17:16 29° 95° (E) 01:21:51 435.225
BUGSAT 1 21 Nov 01:15:16 01:19:21 80° 104° (ESE) 01:23:21 437.445
nSIGHT-1 21 Nov 01:16:42 01:19:39 32° 14° (NNE) 01:22:35 .
UKube-1 21 Nov 01:29:44 01:34:00 61° 258° (WSW) 01:38:19 .
DUCHIFAT 1 21 Nov 01:59:13 02:00:30 11° 301° (WNW) 02:01:45 145.980
ISS 21 Nov 01:59:41 02:02:51 45° 20° (NNE) 02:06:00 437.550
BEESAT 3 21 Nov 02:08:38 02:11:49 23° 114° (ESE) 02:15:01 437.485
BEESAT 21 Nov 02:17:22 02:22:04 61° 72° (ENE) 02:26:48 436.000
DX 1 21 Nov 02:26:21 02:27:52 12° 271° (W) 02:29:23 434.975-435.025
ITUPSAT 1 21 Nov 02:26:48 02:31:34 73° 74° (ENE) 02:36:21 437.325
Oscar 19 21 Nov 02:29:12 02:34:06 45° 291° (WNW) 02:39:00 437.125/150
M-CUBED/EXP-1 PRIME 21 Nov 02:30:06 02:34:16 34° 102° (ESE) 02:38:30 437.505
RS-15 21 Nov 02:32:05 02:43:57 58° 43° (NE) 02:55:08 29.354- 29.394
MOZHAYETS 4 21 Nov 02:42:08 02:46:39 63° 259° (WSW) 02:51:12
PCSat 21 Nov 02:42:48 02:46:18 17° 326° (NW) 02:49:50 145.827
ITAMSAT 1 21 Nov 02:42:50 02:46:11 17° 90° (E) 02:49:30 435.822/435.867
Gurwin Techsat 1B 21 Nov 02:52:21 02:57:19 41° 293° (WNW) 03:02:15 435.225
nSIGHT-1 21 Nov 02:52:53 02:56:04 65° 213° (SSW) 02:59:14 .
BUGSAT 1 21 Nov 02:53:00 02:54:04 11° 301° (WNW) 02:55:08 437.445
CUBESAT XI-V 21 Nov 02:53:08 02:57:25 41° 70° (ENE) 03:01:47 437.345
KKS-1 21 Nov 03:01:26 03:03:50 14° 59° (ENE) 03:06:13 437.445
AO-7 21 Nov 03:06:42 03:14:35 43° 99° (E) 03:22:26 .
BEESAT 2 21 Nov 03:18:50 03:22:31 36° 118° (ESE) 03:26:16 435.950
STARS 21 Nov 03:27:41 03:28:50 11° 57° (ENE) 03:29:59 437.465
YUBILEINY 21 Nov 03:32:50 03:36:14 13° 71° (ENE) 03:39:38 435.215
ISS 21 Nov 03:36:17 03:39:16 34° 219° (SW) 03:42:15 437.550
BEESAT 3 21 Nov 03:45:22 03:49:09 39° 313° (NW) 03:52:57 437.485
BEESAT 21 Nov 03:57:13 04:00:14 16° 269° (W) 04:03:16 436.000
SO-50 21 Nov 03:59:05 04:00:37 11° 25° (NNE) 04:02:09 436.795
M-CUBED/EXP-1 PRIME 21 Nov 04:04:36 04:08:31 30° 298° (WNW) 04:12:33 437.505
AO-85 21 Nov 04:06:21 04:10:01 41° 119° (ESE) 04:13:51 145.980
ITUPSAT 1 21 Nov 04:07:31 04:09:55 14° 271° (W) 04:12:20 437.325
ITAMSAT 1 21 Nov 04:20:57 04:26:08 67° 288° (WNW) 04:31:17 435.822/435.867
CUBESAT XI-V 21 Nov 04:31:22 04:34:58 22° 267° (W) 04:38:36 437.345
KKS-1 21 Nov 04:35:20 04:39:48 73° 257° (WSW) 04:44:19 437.445
RS-15 21 Nov 04:45:08 04:56:18 51° 248° (WSW) 05:06:55 29.354- 29.394
BEESAT 2 21 Nov 04:56:48 05:00:19 28° 317° (NW) 05:03:51 435.950
AO-7 21 Nov 04:59:31 05:07:25 49° 299° (WNW) 05:15:20 .
STARS 21 Nov 05:00:00 05:04:26 85° 76° (ENE) 05:08:54 437.465
DOVE 4 21 Nov 05:03:05 05:08:18 67° 101° (E) 05:13:15 437.250
XW-2D 21 Nov 05:08:59 05:10:59 14° 90° (E) 05:12:59 145.860 - 145.880
STRAND 1 21 Nov 05:22:11 05:25:55 21° 61° (ENE) 05:29:40 437.568
YUBILEINY 21 Nov 05:22:32 05:31:08 65° 92° (E) 05:39:50 435.215
XW-2B 21 Nov 05:23:11 05:25:57 19° 93° (E) 05:28:43 145.730 - 145.750
SO-50 21 Nov 05:37:53 05:42:18 41° 47° (NE) 05:46:44 436.795
NUDT-PHONESAT 21 Nov 05:38:42 05:41:27 20° 93° (E) 05:44:12 437.300
AO-85 21 Nov 05:47:19 05:50:35 24° 320° (NW) 05:54:00 145.980
XW-2C 21 Nov 05:48:10 05:51:44 37° 98° (E) 05:55:17 145.795 - 145.815
LilacSat-2 21 Nov 05:49:56 05:53:36 42° 98° (E) 05:57:15 437.200
CUTE 1.7 + AOD 2 21 Nov 05:51:47 05:52:43 11° 87° (E) 05:53:39 437.475
CUTE-I 21 Nov 05:52:01 05:56:56 35° 96° (E) 06:01:48 437.470
XW-2F 21 Nov 05:58:54 06:02:34 46° 99° (E) 06:06:14 145.980 - 146.000
ITAMSAT 1 21 Nov 06:03:15 06:04:37 11° 307° (NW) 06:06:00 435.822/435.867
SEEDS 21 Nov 06:21:18 06:23:33 14° 90° (E) 06:25:48 437.485
KAITUO 1B 21 Nov 06:26:54 06:30:41 79° 102° (ESE) 06:34:28 145.475/437.950
FO-29 21 Nov 06:35:27 06:41:19 32° 59° (ENE) 06:47:42 435.910
STARS 21 Nov 06:40:46 06:41:22 10° 272° (W) 06:41:58 437.465
XW-2D 21 Nov 06:41:45 06:45:25 47° 287° (WNW) 06:49:06 145.860 - 145.880
DOVE 4 21 Nov 06:41:48 06:45:23 19° 300° (WNW) 06:48:52 437.250
CUBEBUG 2 21 Nov 06:44:58 06:48:17 22° 93° (E) 06:51:33 437.445
AO-7 21 Nov 06:54:29 06:58:14 14° 322° (NW) 07:02:00 .
XW-2B 21 Nov 06:56:45 07:00:13 34° 290° (WNW) 07:03:40 145.730 - 145.750
STRAND 1 21 Nov 06:59:34 07:04:39 60° 259° (WSW) 07:09:46 437.568
HO-68 21 Nov 07:01:01 07:08:05 56° 101° (ESE) 07:15:06 435.675
XW-2A 21 Nov 07:02:24 07:04:27 15° 92° (E) 07:06:30 145.665 - 145.685
NUDT-PHONESAT 21 Nov 07:12:03 07:15:20 31° 290° (WNW) 07:18:39 437.300
SO-50 21 Nov 07:18:36 07:22:37 29° 245° (WSW) 07:26:40 436.795
YUBILEINY 21 Nov 07:21:01 07:28:35 32° 294° (WNW) 07:36:15 435.215
XW-2C 21 Nov 07:22:59 07:25:39 18° 294° (WNW) 07:28:19 145.795 - 145.815
CUTE 1.7 + AOD 2 21 Nov 07:24:47 07:29:04 77° 283° (WNW) 07:33:20 437.475
LilacSat-2 21 Nov 07:25:04 07:27:33 17° 295° (WNW) 07:30:03 437.200
CUTE-I 21 Nov 07:32:06 07:36:57 35° 294° (WNW) 07:41:45 437.470
ZACube-1 21 Nov 07:32:17 07:35:33 22° 94° (E) 07:38:49 437.345
XW-2F 21 Nov 07:34:04 07:36:19 15° 296° (WNW) 07:38:34 145.980 - 146.000
UWE-3 21 Nov 07:41:22 07:45:26 51° 100° (E) 07:49:28 435.000/436.395/437.385
SEEDS 21 Nov 07:55:24 07:59:36 58° 286° (WNW) 08:03:45 437.485
PCSat 21 Nov 07:59:16 08:03:57 29° 44° (NE) 08:08:38 145.827
AAUSAT CUBESAT 2 21 Nov 08:02:10 08:06:22 75° 103° (ESE) 08:10:32 437.432
FO-29 21 Nov 08:19:15 08:25:49 60° 261° (W) 08:33:14 435.910
CUBEBUG 2 21 Nov 08:21:13 08:24:59 33° 291° (WNW) 08:28:42 437.445
AO-73 21 Nov 08:22:42 08:26:50 69° 102° (ESE) 08:30:59 145.935
UNISAT 6 21 Nov 08:23:50 08:28:02 38° 70° (ENE) 08:32:11 437.425
TIGRISAT 21 Nov 08:28:10 08:32:23 38° 70° (ENE) 08:36:32 435.000
XW-2A 21 Nov 08:34:13 08:37:15 32° 289° (WNW) 08:40:17 145.665 - 145.685
DELFI C3 21 Nov 08:34:24 08:36:16 13° 89° (E) 08:38:07 145.870
Oscar 11 21 Nov 08:39:03 08:43:23 70° 101° (ESE) 08:47:42 .
HO-68 21 Nov 08:49:14 08:55:29 33° 301° (WNW) 09:01:42 435.675
ZACube-1 21 Nov 09:08:09 09:11:54 34° 291° (WNW) 09:15:40 437.345
UWE-3 21 Nov 09:18:57 09:21:30 16° 297° (WNW) 09:24:02 435.000/436.395/437.385
PRISM 21 Nov 09:22:25 09:26:26 55° 72° (ENE) 09:30:31 437.425
EO-88 21 Nov 09:36:29 09:39:43 29° 96° (E) 09:42:58 145.990 - 145.960
Max Valier Satellite 21 Nov 09:38:04 09:41:37 44° 99° (E) 09:45:09 145.860
AAUSAT CUBESAT 2 21 Nov 09:39:29 09:41:13 12° 300° (WNW) 09:42:57 437.432
PCSat 21 Nov 09:42:22 09:47:40 56° 244° (WSW) 09:52:56 145.827
AIST 2D 21 Nov 09:43:54 09:46:45 24° 69° (ENE) 09:49:36 435.315
EO-79 21 Nov 09:48:56 09:51:04 14° 61° (ENE) 09:53:13 145.935-145.965
NANOSAT C BR1 21 Nov 09:52:18 09:54:17 13° 60° (ENE) 09:56:16 145.865
BEESAT 2 21 Nov 09:58:50 09:59:11 10° 28° (NNE) 09:59:32 435.950
AO-73 21 Nov 10:00:43 10:02:33 13° 299° (WNW) 10:04:22 145.935
UNISAT 6 21 Nov 10:01:09 10:04:50 24° 266° (W) 10:08:29 437.425
POLYITAN 1 21 Nov 10:03:19 10:06:17 19° 64° (ENE) 10:09:15 437.675
TIGRISAT 21 Nov 10:05:31 10:09:10 23° 266° (W) 10:12:47 435.000
DELFI C3 21 Nov 10:07:25 10:11:22 56° 286° (WNW) 10:15:15 145.870
FALCONSAT 3 21 Nov 10:07:53 10:09:31 13° 165° (SSE) 10:11:10 435.103
FO-29 21 Nov 10:11:41 10:12:36 10° 282° (WNW) 10:13:32 435.910
Oscar 11 21 Nov 10:16:48 10:18:58 14° 299° (WNW) 10:21:08 .
BEESAT 3 21 Nov 10:22:27 10:26:00 30° 45° (NE) 10:29:28 437.485
QB50P2 21 Nov 10:25:36 10:29:25 34° 69° (ENE) 10:33:15 145.880/145.840
AO-85 21 Nov 10:54:55 10:57:47 16° 34° (NE) 11:00:46 145.980
PRISM 21 Nov 10:59:49 11:02:03 14° 269° (W) 11:04:18 437.425
EO-88 21 Nov 11:10:27 11:13:12 20° 293° (WNW) 11:15:57 145.990 - 145.960
Max Valier Satellite 21 Nov 11:13:00 11:15:05 15° 296° (WNW) 11:17:09 145.860
DUCHIFAT 1 21 Nov 11:14:32 11:18:44 78° 76° (ENE) 11:22:58 145.980
AIST 2D 21 Nov 11:17:09 11:19:52 22° 266° (W) 11:22:37 435.315
EO-79 21 Nov 11:22:04 11:26:19 68° 259° (W) 11:30:32 145.935-145.965
NANOSAT C BR1 21 Nov 11:25:12 11:29:26 71° 258° (WSW) 11:33:40 145.865
ESTCUBE 1 21 Nov 11:28:05 11:32:34 58° 101° (E) 11:37:02 437.505/2401.250
LO-87 21 Nov 11:33:37 11:37:11 78° 284° (WNW) 11:40:41 145.935 - 145.965
BEESAT 2 21 Nov 11:34:01 11:37:56 45° 49° (NE) 11:41:47 435.950
POLYITAN 1 21 Nov 11:37:39 11:41:44 46° 261° (W) 11:45:50 437.675
FALCONSAT 3 21 Nov 11:45:21 11:47:51 17° 180° (S) 11:50:22 435.103
VELOX 1 21 Nov 11:49:00 11:51:45 16° 91° (E) 11:54:29 145.980
BEESAT 3 21 Nov 12:00:01 12:03:30 31° 244° (WSW) 12:06:56 437.485
QB50P2 21 Nov 12:01:48 12:05:15 24° 266° (W) 12:08:42 145.880/145.840
BUGSAT 1 21 Nov 12:06:22 12:10:33 73° 75° (ENE) 12:14:43 437.445
Oscar 19 21 Nov 12:09:07 12:13:58 45° 68° (ENE) 12:18:51 437.125/150
AO-7 21 Nov 12:19:15 12:24:38 20° 45° (NE) 12:30:03 .
AO-85 21 Nov 12:34:16 12:38:54 74° 53° (NE) 12:43:55 145.980
DX 1 21 Nov 12:35:17 12:36:21 11° 88° (E) 12:37:25 434.975-435.025
Gurwin Techsat 1B 21 Nov 12:35:39 12:40:51 57° 71° (ENE) 12:46:05 435.225
SPROUT 21 Nov 12:43:40 12:47:56 89° 289° (WNW) 12:52:10 437.525
DUCHIFAT 1 21 Nov 12:54:21 12:54:55 10° 272° (W) 12:55:30 145.980
ESTCUBE 1 21 Nov 13:05:57 13:08:56 18° 298° (WNW) 13:11:54 437.505/2401.250
BEESAT 2 21 Nov 13:12:23 13:15:21 20° 247° (WSW) 13:18:17 435.950
UKube-1 21 Nov 13:15:12 13:18:13 18° 92° (E) 13:21:13 .
50 SAT 21 Nov 13:17:33 13:20:26 29° 97° (E) 13:23:17 437.505
M-CUBED/EXP-1 PRIME 21 Nov 13:17:50 13:21:20 52° 67° (ENE) 13:25:08 437.505
O/OREOS (USA 219) 21 Nov 13:19:49 13:24:21 63° 111° (ESE) 13:28:56 437.305
VELOX 1 21 Nov 13:24:09 13:28:32 56° 289° (WNW) 13:32:53 145.980
FALCONSAT 3 21 Nov 13:24:37 13:26:11 12° 196° (SSW) 13:27:45 435.103
BUGSAT 1 21 Nov 13:45:12 13:46:22 11° 271° (W) 13:47:32 437.445
Oscar 19 21 Nov 13:49:21 13:53:29 25° 267° (W) 13:57:39 437.125/150
ITAMSAT 1 21 Nov 14:02:21 14:07:00 34° 65° (ENE) 14:11:42 435.822/435.867
AO-7 21 Nov 14:07:48 14:16:01 70° 66° (ENE) 14:24:16 .
DX 1 21 Nov 14:08:41 14:13:05 80° 287° (WNW) 14:17:27 434.975-435.025
NO-84 21 Nov 14:13:13 14:15:39 17° 126° (SE) 14:18:13 435.350 FM
AO-85 21 Nov 14:15:54 14:18:54 17° 249° (WSW) 14:22:00 145.980
BEESAT 21 Nov 14:17:03 14:19:06 13° 89° (E) 14:21:09 436.000
Gurwin Techsat 1B 21 Nov 14:17:15 14:21:10 21° 269° (W) 14:25:07 435.225
SPROUT 21 Nov 14:22:19 14:23:07 10° 302° (WNW) 14:23:55 437.525
ITUPSAT 1 21 Nov 14:26:19 14:29:08 15° 90° (E) 14:31:56 437.325
MOZHAYETS 4 21 Nov 14:35:09 14:38:56 25° 94° (E) 14:42:42
DOVE 4 21 Nov 14:35:36 14:37:56 13° 56° (NE) 14:40:17 437.250
50 SAT 21 Nov 14:50:15 14:52:19 16° 294° (WNW) 14:54:21 437.505
UKube-1 21 Nov 14:50:18 14:54:28 46° 290° (WNW) 14:58:36 .
M-CUBED/EXP-1 PRIME 21 Nov 14:54:32 14:56:10 13° 266° (W) 14:57:50 437.505
O/OREOS (USA 219) 21 Nov 15:01:00 15:04:13 18° 310° (NW) 15:07:26 437.305
YUBILEINY 21 Nov 15:30:04 15:38:07 37° 68° (ENE) 15:46:04 435.215
CUTE-I 21 Nov 15:40:09 15:42:03 12° 53° (NE) 15:43:57 437.470
ITAMSAT 1 21 Nov 15:41:40 15:46:25 35° 263° (W) 15:51:13 435.822/435.867
DX 1 21 Nov 15:48:11 15:48:29 10° 304° (WNW) 15:48:46 434.975-435.025
NO-84 21 Nov 15:48:44 15:52:29 75° 324° (NW) 15:56:33 435.350 FM
HO-68 21 Nov 15:49:42 15:52:23 12° 44° (NE) 15:55:03 435.675
BEESAT 21 Nov 15:52:40 15:57:27 78° 286° (WNW) 16:02:11 436.000
AO-7 21 Nov 16:02:33 16:09:25 28° 266° (W) 16:16:21 .
ITUPSAT 1 21 Nov 16:02:40 16:07:24 64° 288° (WNW) 16:12:06 437.325
XW-2B 21 Nov 16:07:22 16:09:15 14° 63° (ENE) 16:11:09 145.730 - 145.750
DOVE 4 21 Nov 16:09:38 16:14:41 80° 75° (ENE) 16:19:59 437.250
MOZHAYETS 4 21 Nov 16:11:59 16:16:10 36° 292° (WNW) 16:20:21
NUDT-PHONESAT 21 Nov 16:20:44 16:22:28 13° 63° (ENE) 16:24:13 437.300
CUBESAT XI-V 21 Nov 16:24:03 16:28:46 76° 103° (ESE) 16:33:27 437.345
KKS-1 21 Nov 16:24:54 16:27:59 18° 92° (E) 16:31:03 437.445
XW-2C 21 Nov 16:31:37 16:34:40 25° 68° (ENE) 16:37:46 145.795 - 145.815
LilacSat-2 21 Nov 16:33:55 16:37:09 28° 69° (ENE) 16:40:24 437.200
XW-2F 21 Nov 16:41:42 16:44:57 29° 69° (ENE) 16:48:14 145.980 - 146.000
CUTE 1.7 + AOD 2 21 Nov 16:46:56 16:48:04 11° 59° (ENE) 16:49:12 437.475
STARS 21 Nov 16:48:50 16:50:49 13° 89° (E) 16:52:47 437.465
RS-15 21 Nov 17:00:29 17:09:40 26° 100° (E) 17:18:46 29.354- 29.394
KAITUO 1B 21 Nov 17:08:30 17:12:01 47° 73° (ENE) 17:15:36 145.475/437.950
SEEDS 21 Nov 17:15:31 17:17:36 14° 61° (ENE) 17:19:40 437.485
CUTE-I 21 Nov 17:15:48 17:21:07 70° 72° (ENE) 17:26:30 437.470
XW-2D 21 Nov 17:24:24 17:28:07 76° 258° (WSW) 17:31:53 145.860 - 145.880
YUBILEINY 21 Nov 17:26:44 17:35:18 57° 270° (W) 17:43:50 435.215
NO-84 21 Nov 17:27:03 17:30:24 25° 346° (NNW) 17:33:55 435.350 FM
HO-68 21 Nov 17:31:36 17:38:31 52° 65° (ENE) 17:45:27 435.675
BEESAT 21 Nov 17:33:03 17:34:23 11° 304° (NW) 17:35:44 436.000
XW-2B 21 Nov 17:39:22 17:43:00 51° 260° (W) 17:46:41 145.730 - 145.750
CUBEBUG 2 21 Nov 17:44:40 17:48:30 27° 67° (ENE) 17:52:14 437.445
DOVE 4 21 Nov 17:50:20 17:53:01 14° 274° (W) 17:55:45 437.250
NUDT-PHONESAT 21 Nov 17:52:21 17:55:54 50° 260° (W) 17:59:29 437.300
KKS-1 21 Nov 18:00:29 18:04:48 49° 289° (WNW) 18:09:05 437.445
CUBESAT XI-V 21 Nov 18:03:00 18:05:32 15° 300° (WNW) 18:08:03 437.345
XW-2C 21 Nov 18:05:39 18:08:47 25° 265° (W) 18:11:56 145.795 - 145.815
LilacSat-2 21 Nov 18:08:26 18:11:25 22° 266° (W) 18:14:26 437.200
XW-2F 21 Nov 18:16:14 18:19:05 21° 266° (W) 18:21:57 145.980 - 146.000
CUTE 1.7 + AOD 2 21 Nov 18:19:02 18:23:13 85° 257° (WSW) 18:27:28 437.475
STARS 21 Nov 18:23:14 18:27:37 68° 287° (WNW) 18:31:57 437.465
ZACube-1 21 Nov 18:30:03 18:33:30 24° 66° (ENE) 18:36:54 437.345
UWE-3 21 Nov 18:39:52 18:44:12 55° 73° (ENE) 18:48:26 435.000/436.395/437.385
KAITUO 1B 21 Nov 18:44:31 18:46:16 13° 270° (W) 18:48:04 145.475/437.950
SEEDS 21 Nov 18:48:36 18:52:44 66° 259° (W) 18:56:55 437.485
AAUSAT CUBESAT 2 21 Nov 18:53:48 18:57:52 62° 74° (ENE) 19:01:59 437.432
CUTE-I 21 Nov 18:58:15 19:01:41 17° 270° (W) 19:05:09 437.470
NO-84 21 Nov 19:05:29 19:08:47 23° 8° (N) 19:12:11 435.350 FM
XW-2A 21 Nov 19:06:32 19:09:51 75° 258° (WSW) 19:13:11 145.665 - 145.685
STRAND 1 21 Nov 19:07:51 19:12:40 39° 98° (E) 19:17:24 437.568
RS-15 21 Nov 19:08:06 19:20:27 86° 123° (ESE) 19:32:44 29.354- 29.394
AO-73 21 Nov 19:19:46 19:24:02 69° 74° (ENE) 19:28:14 145.935
HO-68 21 Nov 19:20:02 19:26:27 34° 264° (W) 19:32:56 435.675
CUBEBUG 2 21 Nov 19:20:50 19:24:59 33° 263° (W) 19:29:03 437.445
DELFI C3 21 Nov 19:22:48 19:23:51 11° 60° (ENE) 19:24:55 145.870
FO-29 21 Nov 19:27:00 19:33:09 24° 88° (E) 19:39:01 435.910
YUBILEINY 21 Nov 19:28:34 19:29:58 10° 291° (WNW) 19:31:21 435.215
nSIGHT-1 21 Nov 19:34:15 19:34:40 10° 131° (SE) 19:35:04 .
Oscar 11 21 Nov 19:35:31 19:39:47 69° 74° (ENE) 19:44:04 .
ZACube-1 21 Nov 20:05:41 20:09:38 34° 263° (W) 20:13:31 437.345
EO-88 21 Nov 20:16:30 20:19:04 19° 66° (ENE) 20:21:40 145.990 - 145.960
ISS 21 Nov 20:17:43 20:20:17 21° 137° (SE) 20:22:51 437.550
UWE-3 21 Nov 20:18:17 20:20:58 16° 269° (W) 20:23:36 435.000/436.395/437.385
Max Valier Satellite 21 Nov 20:18:54 20:22:01 27° 69° (ENE) 20:25:10 145.860
AAUSAT CUBESAT 2 21 Nov 20:31:56 20:33:44 12° 271° (W) 20:35:31 437.432
NO-84 21 Nov 20:42:51 20:46:56 46° 28° (NNE) 20:51:04 435.350 FM
STRAND 1 21 Nov 20:47:19 20:51:42 29° 295° (WNW) 20:56:04 437.568
DELFI C3 21 Nov 20:54:01 20:57:58 78° 257° (WSW) 21:01:59 145.870
AO-73 21 Nov 20:59:05 21:00:42 12° 271° (W) 21:02:18 145.935
nSIGHT-1 21 Nov 21:07:09 21:10:21 69° 147° (SSE) 21:13:33 .
FO-29 21 Nov 21:11:01 21:18:55 78° 288° (WNW) 21:26:22 435.910
Oscar 11 21 Nov 21:14:41 21:16:23 12° 272° (W) 21:18:07 .
RS-15 21 Nov 21:23:00 21:34:28 42° 330° (NNW) 21:45:44 29.354- 29.394
SO-50 21 Nov 21:34:06 21:38:26 52° 120° (ESE) 21:42:50 436.795
O/OREOS (USA 219) 21 Nov 21:48:58 21:52:37 23° 53° (NE) 21:56:13 437.305
EO-88 21 Nov 21:49:13 21:52:29 32° 263° (W) 21:55:48 145.990 - 145.960
UNISAT 6 21 Nov 21:49:23 21:53:39 60° 101° (E) 21:57:50 437.425
Max Valier Satellite 21 Nov 21:52:58 21:55:50 21° 266° (W) 21:58:43 145.860
ISS 21 Nov 21:53:16 21:56:31 64° 336° (NNW) 21:59:46 437.550
TIGRISAT 21 Nov 21:53:34 21:57:48 61° 100° (E) 22:02:00 435.000
SPROUT 21 Nov 22:06:33 22:07:32 11° 58° (ENE) 22:08:32 437.525
LO-87 21 Nov 22:11:01 22:14:33 55° 74° (ENE) 22:18:05 145.935 - 145.965
NO-84 21 Nov 22:20:18 22:24:17 39° 226° (SW) 22:28:14 435.350 FM
ESTCUBE 1 21 Nov 22:29:21 22:33:47 68° 74° (ENE) 22:38:16 437.505/2401.250
PRISM 21 Nov 22:36:19 22:40:29 66° 102° (ESE) 22:44:37 437.425
AIST 2D 21 Nov 22:39:09 22:41:58 22° 94° (E) 22:44:46 435.315
nSIGHT-1 21 Nov 22:43:50 22:46:47 32° 347° (NNW) 22:49:43 .
PCSat 21 Nov 22:45:59 22:48:27 13° 103° (ESE) 22:50:56 145.827
VELOX 1 21 Nov 22:48:07 22:51:19 20° 63° (ENE) 22:54:31 145.980
FO-29 21 Nov 22:57:23 23:02:42 20° 308° (NW) 23:07:54 435.910
DUCHIFAT 1 21 Nov 22:59:23 22:59:36 10° 88° (E) 22:59:51 145.980
EO-79 21 Nov 23:05:26 23:08:06 16° 91° (E) 23:10:45 145.935-145.965
NANOSAT C BR1 21 Nov 23:08:19 23:10:49 15° 91° (E) 23:13:19 145.865
SO-50 21 Nov 23:15:25 23:19:10 25° 320° (NW) 23:22:57 436.795
POLYITAN 1 21 Nov 23:20:25 23:23:47 23° 94° (E) 23:27:08 437.675
UNISAT 6 21 Nov 23:27:27 23:29:53 15° 299° (WNW) 23:32:18 437.425
O/OREOS (USA 219) 21 Nov 23:27:54 23:32:16 45° 252° (WSW) 23:36:33 437.305
ISS 21 Nov 23:30:32 23:33:24 27° 354° (N) 23:36:16 437.550
TIGRISAT 21 Nov 23:31:37 23:34:01 15° 299° (WNW) 23:36:23 435.000
DX 1 21 Nov 23:32:17 23:34:35 14° 60° (ENE) 23:36:54 434.975-435.025
SPROUT 21 Nov 23:38:26 23:42:44 89° 75° (ENE) 23:47:02 437.525
RS-15 21 Nov 23:40:54 23:51:15 30° 4° (N) 00:01:16 29.354- 29.394
QB50P2 21 Nov 23:43:19 23:47:22 45° 99° (E) 23:51:23 145.880/145.840
LO-87 21 Nov 23:47:20 23:48:17 11° 270° (W) 23:49:13 145.935 - 145.965
50 SAT 21 Nov 23:47:28 23:49:18 14° 65° (ENE) 23:51:08 437.505
